Jackson, TN

1:44 PM CST on December 05, 2019 (GMT -0600)
McKellar-Sipes Regional

Weather History for KMKL - October, 2019

Change the Weather History Date:

Monday, October 21, 2019

  Actual Average Record
Temperature  
Mean Temperature 62 °F 59 °F  
Max Temperature 70 °F 72 °F 89 °F (1953)
Min Temperature 54 °F 46 °F 28 °F (1952)
Degree Days  
Heating Degree Days 3 7  
Month to date heating degree days 103 102  
Since 1 July heating degree days 103 128  
Cooling Degree Days 0 1  
Month to date cooling degree days 83 39  
Year to date cooling degree days 1948 1682  
Growing Degree Days 12 (Base 50)    
Moisture  
Dew Point 61 °F    
Average Humidity 89    
Maximum Humidity 100    
Minimum Humidity 76    
Precipitation  
Precipitation 0.20 in 0.12 in 1.49 in (1949)
Month to date precipitation 4.05 2.53  
Year to date precipitation 51.84 41.78  
Sea Level Pressure  
Sea Level Pressure 29.79 in    
Wind  
Wind Speed 10 mph ()    
Max Wind Speed 28 mph    
Max Gust Speed 37 mph    
Visibility 9.6 miles    
Events Rain    
T = Trace of Precipitation, MM = Missing Value Source: Averaged Metar Reports

Daily Weather History Graph

Daily Weather History Graph

Search for Another Location

Airport or City:

Astronomy

Oct. 21, 2019 Rise Set
Actual Time 7:07 AM CDT 6:12 PM CDT
Civil Twilight 6:41 AM CDT 6:38 PM CDT
Nautical Twilight 6:11 AM CDT 7:08 PM CDT
Astronomical Twilight 5:41 AM CDT 7:38 PM CDT
Moon No Moon Rise 2:18 PM CDT (10/21)
Length of Visible Light 11h 57m
Length of Day
11h 05m
Waning Gibbous, 48% of the Moon is Illuminated
Oct 21
Waning Gibbous
Oct 27
New
Nov 4
First Quarter
Nov 12
Full
Nov 19
Last Quarter

Hourly Weather History & Observations

Time (CDT) Temp. Dew Point Humidity Pressure Visibility Wind Dir Wind Speed Gust Speed Precip Events Conditions
12:53 AM 68.0 °F 61.0 °F 78% 29.77 in 10.0 mi South 11.5 mph 23.0 mph N/A   Clear
1:53 AM 66.9 °F 61.0 °F 81% 29.75 in 10.0 mi South 12.7 mph 19.6 mph 0.00 in   Partly Cloudy
2:53 AM 66.9 °F 62.1 °F 84% 29.74 in 10.0 mi South 10.4 mph - N/A   Clear
3:53 AM 66.9 °F 63.0 °F 87% 29.72 in 10.0 mi South 8.1 mph - N/A   Clear
4:53 AM 69.1 °F 64.0 °F 84% 29.71 in 10.0 mi South 12.7 mph 21.9 mph N/A   Overcast
5:07 AM 69.1 °F 64.0 °F 84% 29.72 in 10.0 mi South 11.5 mph 20.7 mph N/A   Overcast
5:45 AM 69.1 °F 64.0 °F 84% 29.72 in 10.0 mi South 8.1 mph 20.7 mph N/A   Scattered Clouds
5:53 AM 69.1 °F 64.0 °F 84% 29.71 in 10.0 mi South 10.4 mph 19.6 mph N/A   Scattered Clouds
6:09 AM 69.1 °F 64.0 °F 84% 29.71 in 10.0 mi South 11.5 mph 20.7 mph N/A   Mostly Cloudy
6:33 AM 69.1 °F 63.0 °F 81% 29.71 in 10.0 mi South 12.7 mph 20.7 mph N/A   Mostly Cloudy
6:53 AM 69.1 °F 63.0 °F 81% 29.70 in 10.0 mi South 12.7 mph 23.0 mph N/A   Overcast
7:53 AM 66.9 °F 63.0 °F 87% 29.79 in 5.0 mi WSW 27.6 mph 36.8 mph 0.00 in Rain Rain
8:00 AM 64.9 °F 62.1 °F 90% 29.80 in 7.0 mi SW 19.6 mph 36.8 mph 0.00 in Rain Light Rain
9:53 AM 64.9 °F 62.1 °F 90% 29.79 in 10.0 mi South 11.5 mph - 0.00 in   Overcast
10:53 AM 64.0 °F 63.0 °F 96% 29.79 in 8.0 mi South 12.7 mph 18.4 mph 0.01 in Rain Light Rain
11:53 AM 64.0 °F 63.0 °F 96% 29.81 in 10.0 mi South 15.0 mph 19.6 mph 0.00 in Rain Light Rain
12:53 PM 64.0 °F 63.0 °F 96% 29.78 in 7.0 mi SSE 8.1 mph - 0.00 in Rain Light Rain
1:53 PM 64.0 °F 62.1 °F 93% 29.76 in 10.0 mi South 9.2 mph - N/A   Scattered Clouds
2:53 PM 66.0 °F 62.1 °F 87% 29.77 in 10.0 mi South 15.0 mph 21.9 mph N/A   Overcast
3:29 PM 64.9 °F 61.0 °F 87% 29.79 in 10.0 mi SSW 13.8 mph 23.0 mph N/A   Overcast
3:53 PM 64.9 °F 61.0 °F 87% 29.78 in 10.0 mi SSW 11.5 mph - N/A   Overcast
4:53 PM 64.0 °F 61.0 °F 90% 29.78 in 10.0 mi SSW 11.5 mph - N/A   Overcast
5:24 PM 64.0 °F 61.0 °F 90% 29.80 in 10.0 mi SSW 10.4 mph - N/A   Mostly Cloudy
5:53 PM 63.0 °F 61.0 °F 93% 29.80 in 10.0 mi SSW 10.4 mph - N/A   Mostly Cloudy
6:07 PM 63.0 °F 61.0 °F 93% 29.81 in 10.0 mi SSW 9.2 mph - N/A   Scattered Clouds
6:53 PM 62.1 °F 60.1 °F 93% 29.80 in 10.0 mi SSW 8.1 mph - N/A   Mostly Cloudy
7:02 PM 62.1 °F 60.1 °F 93% 29.82 in 10.0 mi SSW 8.1 mph - N/A   Scattered Clouds
7:33 PM 61.0 °F 60.1 °F 97% 29.83 in 10.0 mi South 6.9 mph - N/A   Mostly Cloudy
7:53 PM 61.0 °F 60.1 °F 97% 29.82 in 10.0 mi South 8.1 mph - N/A   Mostly Cloudy
8:53 PM 61.0 °F 59.0 °F 93% 29.85 in 10.0 mi SSW 11.5 mph - N/A   Mostly Cloudy
9:42 PM 60.1 °F 59.0 °F 96% 29.89 in 10.0 mi SSW 8.1 mph - N/A   Partly Cloudy
9:53 PM 60.1 °F 59.0 °F 96% 29.89 in 10.0 mi SSW 9.2 mph - N/A   Scattered Clouds
10:53 PM 59.0 °F 57.9 °F 96% 29.91 in 10.0 mi SW 8.1 mph - N/A   Clear
11:53 PM 59.0 °F 55.0 °F 87% 29.90 in 10.0 mi West 9.2 mph - N/A   Clear